Weather History for LRAR - May, 2013

Change the Weather History Date:

Saturday, May 25, 2013

  Actual Average Record
Temperature  
Mean Temperature 58 °F -  
Max Temperature 66 °F 76 °F 87 °F (2002)
Min Temperature 50 °F 54 °F 39 °F (2004)
Degree Days  
Heating Degree Days 7    
Growing Degree Days 8 (Base 50)    
Moisture  
Dew Point 52 °F    
Average Humidity 81    
Maximum Humidity 100    
Minimum Humidity 38    
Precipitation  
Precipitation 0.04 in - - ()
Sea Level Pressure  
Sea Level Pressure 29.79 in    
Wind  
Wind Speed 6 mph ()    
Max Wind Speed 15 mph    
Max Gust Speed -    
Visibility 7.1 miles    
Events Rain , Thunderstorm    
Averages and records for this station are not official NWS values.
T = Trace of Precipitation, MM = Missing Value Source: Averaged Metar Reports

Daily Weather History Graph

Daily Weather History Graph

Search for Another Location

Airport or City:

Trip Planner

Search our weather history database for the weather conditions in past years. The results will help you decide how hot, cold, wet, or windy it might be!

Date:

Astronomy

May. 25, 2013 Rise Set
Actual Time 5:52 AM EEST 9:12 PM EEST
Civil Twilight 5:15 AM EEST 9:49 PM EEST
Nautical Twilight 4:27 AM EEST 10:37 PM EEST
Astronomical Twilight 3:26 AM EEST 11:38 PM EEST
Moon 9:39 PM EEST (5/25) 6:02 AM EEST (5/25)
Length of Visible Light 16h 33m
Length of Day
15h 20m
Full, 100% of the Moon is Illuminated
May 25
Full
May 31
Last Quarter
Jun 8
New
Jun 16
First Quarter
Jun 23
Full

Hourly Weather History & Observations

Time (EEST) Temp. Dew Point Humidity Pressure Visibility Wind Dir Wind Speed Gust Speed Precip Events Conditions
12:00 AM 52 °F 51 °F 95% 29.77 in 6 mi SE 2.2 mph - -   Partly Cloudy
12:00 AM 53.6 °F 53.6 °F 100% 29.77 in 6.2 mi SE 2.3 mph - N/A   Partly Cloudy
1:00 AM 51 °F 50 °F 97% 29.78 in 6 mi SE 2.2 mph - -   Mostly Cloudy
1:00 AM 53.6 °F 53.6 °F 100% 29.77 in 6.2 mi SSE 6.9 mph - N/A   Partly Cloudy
2:00 AM 52 °F 51 °F 95% 29.78 in 6 mi SSE 2.2 mph - -   Mostly Cloudy
2:00 AM 53.6 °F 53.6 °F 100% 29.77 in 6.2 mi SSW 5.8 mph - N/A   Partly Cloudy
3:00 AM 54 °F 53 °F 96% 29.77 in 6 mi South 2.2 mph - -   Overcast
3:00 AM 55.4 °F 55.4 °F 100% 29.77 in 6.2 mi South 4.6 mph - N/A Rain Light Rain
4:00 AM 55 °F 54 °F 96% 29.77 in 6 mi South 4.5 mph - - Rain Light Rain Showers
4:00 AM 55.4 °F 55.4 °F 100% 29.77 in 6.2 mi SSW 6.9 mph - N/A   Scattered Clouds
5:00 AM 54 °F 53 °F 97% 29.77 in 6 mi South 4.5 mph - -   Partly Cloudy
5:00 AM 53.6 °F 53.6 °F 100% 29.77 in 6.2 mi SW 9.2 mph - N/A   Partly Cloudy
5:30 AM 53.6 °F 53.6 °F 100% 29.77 in 4.3 mi SSW 6.9 mph - N/A   Partly Cloudy
6:00 AM 54 °F 53 °F 93% 29.78 in 6 mi South 6.7 mph - -   Partly Cloudy
6:00 AM 53.6 °F 53.6 °F 100% 29.77 in 3.7 mi SSW 6.9 mph - N/A Rain Light Rain
6:30 AM 53.6 °F 53.6 °F 100% 29.77 in 6.2 mi South 9.2 mph - N/A Rain Light Rain Showers
7:00 AM 54 °F 53 °F 95% 29.78 in 6 mi South 4.5 mph - - Rain Light Rain Showers
7:00 AM 53.6 °F 53.6 °F 100% 29.77 in 3.7 mi South 9.2 mph - N/A Rain Light Rain Showers
7:30 AM 53.6 °F 53.6 °F 100% 29.77 in 3.1 mi SSW 10.4 mph - N/A Rain Light Rain Showers
8:00 AM 54 °F 53 °F 95% 29.79 in 6 mi SSW 8.9 mph - - Rain Light Rain Showers
8:00 AM 53.6 °F 53.6 °F 100% 29.80 in 5.6 mi SSW 8.1 mph - N/A Rain Light Rain
8:30 AM 53.6 °F 53.6 °F 100% 29.80 in 5.6 mi SSW 9.2 mph - N/A Rain Light Rain
9:00 AM 54 °F 53 °F 96% 29.80 in 6 mi SW 4.5 mph - - Rain Light Rain
9:00 AM 53.6 °F 53.6 °F 100% 29.80 in 6.2 mi SSW 8.1 mph - N/A Rain Light Rain
9:30 AM 55.4 °F 55.4 °F 100% 29.80 in 6.2 mi SSW 9.2 mph - N/A   Scattered Clouds
10:00 AM 56 °F 52 °F 81% 29.81 in 6 mi SW 4.5 mph - - Rain Light Rain
10:00 AM 57.2 °F 55.4 °F 94% 29.80 in 6.2 mi SSW 8.1 mph - N/A   Partly Cloudy
10:30 AM 57.2 °F 55.4 °F 94% 29.80 in 6.2 mi SSW 9.2 mph - N/A   Scattered Clouds
11:00 AM 57 °F 51 °F 74% 29.81 in 6 mi SW 4.5 mph - -   Mostly Cloudy
11:00 AM 57.2 °F 53.6 °F 88% 29.80 in 6.2 mi SSW 11.5 mph - N/A   Mostly Cloudy
11:30 AM 57.2 °F 55.4 °F 94% 29.83 in 6.2 mi SSW 6.9 mph - N/A   Mostly Cloudy
12:00 PM 56 °F 50 °F 73% 29.83 in 12 mi SSW 6.7 mph - -   Partly Cloudy
12:00 PM 59.0 °F 55.4 °F 88% 29.83 in 6.2 mi SSW 6.9 mph - N/A   Mostly Cloudy
12:30 PM 59.0 °F 53.6 °F 82% 29.83 in 6.2 mi SSW 10.4 mph - N/A   Scattered Clouds
1:00 PM 59 °F 49 °F 60% 29.83 in 12 mi SSW 6.7 mph - -   Mostly Cloudy
1:00 PM 62.6 °F 57.2 °F 82% 29.83 in 6.2 mi SSW 12.7 mph - N/A   Scattered Clouds
1:30 PM 60.8 °F 53.6 °F 77% 29.83 in 6.2 mi SSW 15.0 mph - N/A   Scattered Clouds
2:00 PM 62 °F 49 °F 51% 29.82 in 12 mi SSW 8.9 mph - -   Mostly Cloudy
2:00 PM 60.8 °F 53.6 °F 77% 29.80 in 6.2 mi SSW 10.4 mph - N/A   Scattered Clouds
2:30 PM 62.6 °F 51.8 °F 68% 29.80 in 6.2 mi SW 11.5 mph - N/A   Mostly Cloudy
3:00 PM 62 °F 50 °F 55% 29.81 in 12 mi SSW 8.9 mph - -   Partly Cloudy
3:00 PM 64.4 °F 53.6 °F 68% 29.80 in 6.2 mi SSW 15.0 mph - N/A   Mostly Cloudy
3:30 PM 62.6 °F 50.0 °F 63% 29.80 in 6.2 mi SSW 11.5 mph - N/A   Mostly Cloudy
4:00 PM 64 °F 47 °F 43% 29.81 in 12 mi South 8.9 mph - -   Mostly Cloudy
4:00 PM 64.4 °F 53.6 °F 68% 29.80 in 6.2 mi South 10.4 mph - N/A   Mostly Cloudy
4:30 PM 64.4 °F 50.0 °F 59% 29.80 in 6.2 mi South 8.1 mph - N/A   Mostly Cloudy
5:00 PM 65 °F 46 °F 38% 29.80 in 12 mi SSW 6.7 mph - -   Partly Cloudy
5:00 PM 64.4 °F 50.0 °F 59% 29.80 in 6.2 mi South 8.1 mph - N/A   Mostly Cloudy
5:30 PM 64.4 °F 50.0 °F 59% 29.77 in 6.2 mi South 8.1 mph - N/A   Mostly Cloudy
6:00 PM 65 °F 47 °F 42% 29.78 in 12 mi South 4.5 mph - -   Partly Cloudy
6:00 PM 66.2 °F 50.0 °F 56% 29.77 in 6.2 mi SSW 6.9 mph - N/A   Mostly Cloudy
6:30 PM 64.4 °F 51.8 °F 64% 29.77 in 6.2 mi South 5.8 mph - N/A   Partly Cloudy
7:00 PM 66 °F 48 °F 41% 29.78 in 12 mi SSW 4.5 mph - -   Partly Cloudy
7:00 PM 64.4 °F 50.0 °F 59% 29.77 in 6.2 mi South 6.9 mph - N/A   Partly Cloudy
7:30 PM 64.4 °F 51.8 °F 64% 29.77 in 6.2 mi South 6.9 mph - N/A   Partly Cloudy
8:00 PM 65 °F 50 °F 47% 29.77 in 12 mi SSE 2.2 mph - -   Scattered Clouds
8:00 PM 62.6 °F 51.8 °F 68% 29.77 in 6.2 mi SSE 5.8 mph - N/A   Partly Cloudy
8:30 PM 62.6 °F 51.8 °F 68% 29.77 in 6.2 mi SE 2.3 mph - N/A   Partly Cloudy
9:00 PM 60 °F 53 °F 70% 29.76 in 12 mi ESE 2.2 mph - -   Partly Cloudy
9:00 PM 59.0 °F 53.6 °F 82% 29.77 in 6.2 mi SSE 2.3 mph - N/A   Partly Cloudy
10:00 PM 57 °F 54 °F 86% 29.76 in 12 mi East 2.2 mph - -   Mostly Cloudy
10:00 PM 57.2 °F 57.2 °F 100% 29.74 in 6.2 mi Variable 2.3 mph - N/A Thunderstorm Thunderstorm
11:00 PM 51 °F 47 °F 80% 29.81 in 12 mi SW 11.2 mph - - Rain , Thunderstorm Thunderstorms and Rain
11:00 PM 51.8 °F 51.8 °F 100% 29.77 in 6.2 mi ENE 6.9 mph - N/A Rain , Thunderstorm Light Thunderstorms and Rain